Location: Shandelee
(41.8790°N, 74.8713°W)
Time: 12:48:31
(UTC+00:00)

In-Cosmos 22 Rocket - Pass Details

Date: 29 October 2020
Orbit: 790 x 888 km, 81.2° (Epoch: 01 December)

Event Time Altitude Azimuth Distance (km) Brightness Sun altitude
Rises 22:39:03 0° 354° (N) 3,315 7.2 -8.4°
Reaches altitude 10° 22:41:28 10° 359° (N) 2,389 6.5 -8.9°
Maximum altitude 22:46:45 55° 77° (ENE) 979 4.2 -9.8°
Drops below altitude 10° 22:52:07 10° 155° (SSE) 2,429 6.4 -10.8°
Sets 22:54:36 0° 159° (SSE) 3,374 7.2 -11.3°
